#timestamp,LO_Frequency,Hit 
1499868015.5,286046985.2,N
1499868035.3,286046981.3,N
1499868055.2,286046979.2,N
1499868075.9,286046977.7,N
1499868095.7,286046977.3,N
1499868115.6,286046981.1,N
1499868135.4,286046980.8,N
1499868155.2,286046982.6,N
1499868175.1,286046983.4,N
1499868176.0,286046983.4,N
1499868195.8,286046982.2,N
1499868215.6,286046986.0,N
1499868235.5,286046986.8,N
1499868255.3,286046982.5,N
1499868275.1,286046982.4,N
1499868295.8,286046982.7,N
1499868315.7,286046981.4,N
1499868335.5,286046979.0,N
1499868355.3,286046979.1,N
1499868375.2,286046977.7,N
1499868395.0,286046979.6,N
1499868395.9,286046979.6,N
1499868415.7,286046981.6,N
1499868435.6,286046977.3,N
1499868455.4,286046977.8,N
1499868475.2,286046979.0,N
1499868495.1,286046977.5,N
1499868496.0,286046977.5,N
1499868515.8,286046980.1,N
1499868535.6,286046977.9,N
1499868555.5,286046979.6,N
1499868575.3,286046983.5,N
1499868595.1,286046984.3,N
1499868615.9,286046985.7,N
1499868635.7,286046986.3,N
1499868655.5,286046983.7,N
1499868675.4,286046985.8,N
1499868695.2,286046986.2,N
1499868715.0,286046986.1,N
1499868715.9,286046986.1,N
1499868735.8,286046985.4,N
1499868755.6,286046987.8,N
1499868775.4,286046987.5,N
1499868795.3,286046987.8,N
1499868815.1,286046987.9,N
1499868816.0,286046987.9,N
1499868835.8,286046986.1,N
1499868855.6,286046987.9,N
1499868875.5,286046991.0,N
1499868895.3,286046991.5,N
1499868915.1,286046991.0,N
1499868935.9,286046991.0,N
1499868955.7,286046991.5,N
1499868975.5,286046991.3,N
1499868995.4,286046994.8,N
1499869015.2,286046994.7,N
1499869035.0,286046990.5,N
1499869035.9,286046990.5,N
1499869055.8,286046993.8,N
1499869075.6,286046990.2,N
1499869095.4,286046990.2,N
1499869115.3,286046988.9,N
1499869135.1,286046987.1,N
1499869136.0,286046987.1,N
1499869155.8,286046992.6,N
1499869175.7,286046994.4,N
1499869195.5,286046996.2,N
1499869215.3,286046996.4,N
1499869235.2,286046997.5,N
1499869255.9,286046999.0,N
1499869275.7,286046997.8,N
1499869295.6,286046996.5,N
1499869315.4,286046999.2,N
1499869335.2,286046993.8,N
1499869355.0,286046997.5,N
1499869356.0,286046997.5,N
1499869375.8,286046996.5,N
1499869395.6,286046999.8,N
1499869415.4,286047000.7,N
1499869435.3,286047002.4,N
1499869455.1,286047000.5,N
1499869475.8,286046997.0,N
1499869495.7,286046994.9,N
1499869515.5,286046998.8,N
1499869535.3,286046999.4,N
1499869555.2,286046997.4,N
1499869575.9,286046996.7,N
1499869595.7,286047000.6,N
1499869615.6,286046998.8,N
1499869635.4,286046996.8,N
1499869655.2,286046996.7,N
1499869675.1,286046999.1,N
1499869676.0,286046999.1,N
1499869695.8,286046997.4,N
1499869715.6,286046999.2,N
1499869735.5,286046998.5,N
1499869755.3,286046997.2,N
1499869775.1,286046996.7,N
1499869795.8,286046995.0,N
1499869815.7,286046995.2,N
1499869835.5,286046995.7,N
1499869855.3,286046996.5,N
1499869875.2,286047000.8,N
1499869895.9,286047001.1,N
1499869915.7,286046996.8,N
1499869935.6,286046995.8,N
1499869955.4,286046990.5,N
1499869975.2,286046989.7,N
1499869995.1,286046987.5,N
1499869996.0,286046987.5,N
1499870015.8,286046988.4,N
1499870035.6,286046985.3,N
1499870055.5,286046985.4,N
1499870075.3,286046986.8,N
1499870095.1,286046986.6,N
1499870115.9,286046986.1,N
1499870135.7,286046982.1,N
1499870155.5,286046981.1,N
1499870175.3,286046979.4,N
1499870195.2,286046985.2,N
1499870215.0,286046985.4,N
1499870215.9,286046985.4,N
1499870235.7,286046986.8,N
1499870255.6,286046981.3,N
1499870275.4,286046980.4,N
1499870295.2,286046977.3,N
1499870315.1,286046979.8,N
1499870316.0,286046979.8,N
1499870335.8,286046978.6,N
1499870355.6,286046981.2,N
1499870375.5,286046979.6,N
1499870395.3,286046977.6,N
1499870415.1,286046980.2,N
1499870435.9,286046979.0,N
1499870455.7,286046983.0,N
1499870475.5,286046980.6,N
1499870495.4,286046982.9,N
1499870515.2,286046979.2,N
1499870535.0,286046980.4,N
1499870535.9,286046980.4,N
1499870555.8,286046977.5,N
1499870575.6,286046979.4,N
1499870595.4,286046984.8,N
1499870615.3,286046981.1,N
1499870635.1,286046984.1,N
1499870636.0,286046984.1,N
1499870655.8,286046984.1,N
1499870675.7,286046982.1,N
1499870695.5,286046986.8,N
1499870715.3,286046983.7,N
1499870735.2,286046986.4,N
1499870755.9,286046985.4,N
1499870775.7,286046984.1,N
1499870795.5,286046982.1,N
1499870815.4,286046982.7,N
1499870835.2,286046983.6,N
1499870855.0,286046980.5,N
1499870855.9,286046980.5,N
1499870875.8,286046986.1,N
1499870895.6,286046985.5,N
1499870915.4,286046986.1,N
1499870935.3,286046986.9,N
1499870955.1,286046986.0,N
1499870975.8,286046982.3,N
1499870995.7,286046983.3,N
1499871015.5,286046982.4,N
1499871035.3,286046980.5,N
1499871055.2,286046980.5,N
1499871075.9,286046982.0,N
1499871095.7,286046981.7,N
1499871115.6,286046983.4,N
1499871135.4,286046981.8,N
1499871155.2,286046980.3,N
1499871175.1,286046979.8,N
1499871176.0,286046979.8,N
1499871195.8,286046978.9,N
1499871215.6,286046977.4,N
1499871235.5,286046977.6,N
1499871255.3,286046980.4,N
1499871275.1,286046978.4,N
1499871295.8,286046975.9,N
1499871315.7,286046978.5,N
1499871335.5,286046978.4,N
1499871355.3,286046976.4,N
1499871375.2,286046974.6,N
1499871395.9,286046975.3,N
1499871415.7,286046976.0,N
1499871435.6,286046980.4,N
1499871455.4,286046979.9,N
1499871475.2,286046979.0,N
1499871495.1,286046979.9,N
1499871496.0,286046979.9,N
1499871515.8,286046980.4,N
1499871535.6,286046978.4,N
1499871555.5,286046978.0,N
1499871575.3,286046976.1,N
1499871595.1,286046977.3,N
